ONEWEB-0385 (49311 NORAD) Tracking and Keplerian Element Data

This shows tracking and keplerian element data for the satellite.

Feedback or suggestion? Click here.




ElementValue
Catalog49311
NameONEWEB-0385
Epoch Orbit355
Epoch Day339.91667824
Epoch Year2021
RAAN274.9448
Inclination87.197
Eccentricity0.0013097
Argument of Perigee66.3177
Mean Anonmoly187.4727
Mean Motion14.90989971
Decay Rate-0.00053669
L11 49311U 21090AJ 21339.91667824 -.00053669 00000+0 -54751-2 0 9995
L22 49311 87.1970 274.9448 0013097 66.3177 187.4727 14.90989971 3556

Live tracking and technical data element details for ONEWEB-0385 (NORAD 49311). ONEWEB-0385 can be tracked NOW for your location showing map with azimuth and elevation plus other details from your city location.

Track the satellite on the map from your city or location and see movement details for azimuth, elevation, latitude, longitude, range, height, and movement on the map or in text.







IsCatalogInMostPopularTable: catalog: 49311, numindb: 7
Update: records affected: 1



GetName: 49311 ONEWEB-0385

Hit Count: updated at: Mon, 06 Dec 2021 15:43:33 GMT